Weather History for KEVM - September, 2013

Change the Weather History Date:

Saturday, September 14, 2013

  Actual Average Record
Temperature  
Mean Temperature 55 °F -  
Max Temperature 71 °F 66 °F - (-1)
Min Temperature 39 °F 44 °F - (-1)
Degree Days  
Heating Degree Days 10    
Growing Degree Days 5 (Base 50)    
Moisture  
Dew Point 48 °F    
Average Humidity 77    
Maximum Humidity 100    
Minimum Humidity 52    
Precipitation  
Precipitation 0.00 in - - ()
Sea Level Pressure  
Sea Level Pressure 29.96 in    
Wind  
Wind Speed 6 mph (SW)    
Max Wind Speed 16 mph    
Max Gust Speed 24 mph    
Visibility 10 miles    
Events Rain    
Averages and records for this station are not official NWS values.
T = Trace of Precipitation, MM = Missing Value Source: NWS Daily Summary

Daily Weather History Graph

Daily Weather History Graph

Search for Another Location

Airport or City:

Trip Planner

Search our weather history database for the weather conditions in past years. The results will help you decide how hot, cold, wet, or windy it might be!

Date:

Astronomy

Sep. 14, 2013 Rise Set
Actual Time 6:46 AM CDT 7:23 PM CDT
Civil Twilight 6:15 AM CDT 7:54 PM CDT
Nautical Twilight 5:38 AM CDT 8:30 PM CDT
Astronomical Twilight 5:00 AM CDT 9:09 PM CDT
Moon 4:20 PM CDT (9/14) 1:01 AM CDT (9/14)
Length of Visible Light 13h 38m
Length of Day
12h 37m
Waxing Gibbous, 72% of the Moon is Illuminated
Sep 14
Waxing Gibbous
Sep 19
Full
Sep 26
Last Quarter
Oct 4
New
Oct 11
First Quarter

Hourly Weather History & Observations

Time (CDT) Temp. Windchill Dew Point Humidity Pressure Visibility Wind Dir Wind Speed Gust Speed Precip Events Conditions
12:07 AM 51.8 °F - 44.6 °F 76% 30.05 in 10.0 mi SSW 4.6 mph - N/A   Clear
12:27 AM 51.8 °F - 44.6 °F 76% 30.05 in 10.0 mi SSW 5.8 mph - N/A   Clear
12:47 AM 51.8 °F - 44.6 °F 76% 30.05 in 10.0 mi SSW 8.1 mph - N/A   Clear
1:07 AM 51.8 °F - 44.6 °F 76% 30.05 in 10.0 mi SSW 4.6 mph - N/A   Clear
1:27 AM 50.0 °F - 42.8 °F 76% 30.04 in 10.0 mi SSW 4.6 mph - N/A   Clear
1:47 AM 50.0 °F - 44.6 °F 82% 30.04 in 10.0 mi SSW 4.6 mph - N/A   Clear
2:07 AM 46.4 °F - 41.0 °F 81% 30.04 in 10.0 mi Calm Calm - N/A   Clear
2:27 AM 42.8 °F - 41.0 °F 93% 30.03 in 10.0 mi Calm Calm - N/A   Clear
2:47 AM 42.8 °F - 41.0 °F 93% 30.03 in 10.0 mi Calm Calm - N/A   Clear
3:07 AM 42.8 °F 41.1 °F 41.0 °F 93% 30.02 in 10.0 mi SSW 3.5 mph - N/A   Clear
3:27 AM 42.8 °F - 41.0 °F 93% 3.06 in - Calm Calm - N/A   Clear
3:47 AM 39.2 °F - 37.4 °F 93% 30.02 in 10.0 mi Calm Calm - N/A   Clear
4:07 AM 42.8 °F 41.1 °F 41.0 °F 93% 30.01 in 10.0 mi SSW 3.5 mph - N/A   Clear
4:27 AM 46.4 °F 44.3 °F 42.8 °F 87% 30.00 in 10.0 mi SSW 4.6 mph - N/A   Clear
4:47 AM 46.4 °F 45.2 °F 41.0 °F 81% 30.00 in 10.0 mi SW 3.5 mph - N/A   Clear
5:07 AM 42.8 °F - 37.4 °F 81% 30.00 in 10.0 mi Calm Calm - N/A   Clear
5:27 AM 42.8 °F - 41.0 °F 93% 30.00 in 10.0 mi Calm Calm - N/A   Clear
5:47 AM 39.2 °F - 37.4 °F 93% 30.00 in 10.0 mi Calm Calm - N/A   Clear
6:07 AM 41.0 °F - 39.2 °F 93% 30.00 in 10.0 mi Calm Calm - N/A   Clear
6:27 AM 41.0 °F - 41.0 °F 100% 30.00 in 10.0 mi Calm Calm - N/A   Clear
6:47 AM 41.0 °F - 39.2 °F 93% 30.00 in 10.0 mi Calm Calm - N/A   Clear
7:07 AM 39.2 °F - 37.4 °F 93% 30.00 in 10.0 mi Calm Calm - N/A   Clear
7:27 AM 42.8 °F - 41.0 °F 93% 29.99 in 10.0 mi Calm Calm - N/A   Clear
7:47 AM 44.6 °F 43.1 °F 42.8 °F 93% 29.99 in 10.0 mi SSW 3.5 mph - N/A   Clear
8:07 AM 50.0 °F - 46.4 °F 87% 29.99 in 10.0 mi SSW 3.5 mph - N/A   Clear
8:27 AM 51.8 °F - 46.4 °F 82% 29.98 in 10.0 mi SSW 6.9 mph - N/A   Clear
8:47 AM 53.6 °F - 46.4 °F 77% 29.98 in 10.0 mi SSW 8.1 mph - N/A   Clear
9:07 AM 53.6 °F - 46.4 °F 77% 29.98 in 10.0 mi SW 10.4 mph - N/A   Clear
9:27 AM 57.2 °F - 48.2 °F 72% 29.97 in 10.0 mi SW 8.1 mph - N/A   Clear
9:47 AM 57.2 °F - 46.4 °F 67% 29.96 in 10.0 mi SW 10.4 mph - N/A   Clear
10:07 AM 59.0 °F - 48.2 °F 67% 29.96 in 10.0 mi SW 9.2 mph - N/A   Clear
10:27 AM 62.6 °F - 50.0 °F 63% 2.96 in 10.0 mi SW 9.2 mph - N/A   Clear
10:47 AM 62.6 °F - 50.0 °F 63% 29.95 in 10.0 mi SW 11.5 mph 16.1 mph N/A   Clear
11:07 AM 64.4 °F - 50.0 °F 59% 29.93 in 10.0 mi SW 13.8 mph 17.3 mph N/A   Clear
11:27 AM 66.2 °F - 51.8 °F 60% 29.92 in 10.0 mi SW 9.2 mph - N/A   Clear
11:47 AM 69.8 °F - 51.8 °F 53% 29.91 in 10.0 mi WSW 10.4 mph 18.4 mph N/A   Clear
12:07 PM 68.0 °F - 50.0 °F 52% 29.91 in 10.0 mi SW 10.4 mph - N/A   Clear
12:27 PM 68.0 °F - 51.8 °F 56% 29.91 in 10.0 mi SW 12.7 mph - N/A   Clear
12:47 PM 69.8 °F - 51.8 °F 53% 29.91 in 10.0 mi SW 10.4 mph - N/A   Clear
1:07 PM 69.8 °F - 53.6 °F 56% 29.90 in 10.0 mi SW 15.0 mph - N/A   Clear
1:27 PM 69.8 °F - 51.8 °F 53% 29.90 in 10.0 mi SW 9.2 mph 24.2 mph N/A   Clear
1:47 PM 69.8 °F - 53.6 °F 56% 29.90 in 10.0 mi SW 13.8 mph 17.3 mph N/A   Clear
2:07 PM 71.6 °F - 53.6 °F 53% 29.89 in 10.0 mi SW 13.8 mph 19.6 mph N/A   Clear
2:27 PM 71.6 °F - 53.6 °F 53% 29.89 in 10.0 mi SW 16.1 mph 20.7 mph N/A   Clear
2:47 PM 69.8 °F - 51.8 °F 53% 29.88 in 10.0 mi SW 15.0 mph 20.7 mph N/A   Scattered Clouds
3:07 PM 68.0 °F - 51.8 °F 56% 29.89 in 10.0 mi SW 12.7 mph 17.3 mph N/A   Clear
3:27 PM 66.2 °F - 51.8 °F 60% 29.90 in 10.0 mi SW 11.5 mph - N/A   Clear
3:47 PM 64.4 °F - 50.0 °F 59% 29.90 in 10.0 mi SW 11.5 mph - N/A   Clear
4:07 PM 64.4 °F - 51.8 °F 64% 2.96 in 10.0 mi SW 9.2 mph - N/A   Clear
4:27 PM 64.4 °F - 51.8 °F 64% 29.91 in 10.0 mi WSW 3.5 mph - N/A   Clear
4:47 PM 62.6 °F - 51.8 °F 68% 29.90 in 10.0 mi SSW 8.1 mph - N/A   Clear
5:07 PM 62.6 °F - 51.8 °F 68% 29.91 in 10.0 mi SW 5.8 mph - N/A   Clear
5:27 PM 62.6 °F - 53.6 °F 72% 29.91 in 10.0 mi WSW 6.9 mph - N/A   Clear
5:47 PM 62.6 °F - 51.8 °F 68% 29.92 in 10.0 mi WSW 10.4 mph - N/A   Mostly Cloudy
6:07 PM 62.6 °F - 51.8 °F 68% 29.92 in 10.0 mi WSW 6.9 mph - N/A   Overcast
6:27 PM 62.6 °F - 51.8 °F 68% 29.93 in 10.0 mi WSW 8.1 mph - N/A   Overcast
6:47 PM 62.6 °F - 53.6 °F 72% 29.92 in 10.0 mi SW 10.4 mph - N/A   Light Drizzle
7:07 PM 59.0 °F - 51.8 °F 77% 29.93 in 10.0 mi SW 13.8 mph 20.7 mph N/A Rain Light Rain
7:27 PM 59.0 °F - 53.6 °F 82% 29.95 in 10.0 mi SW 15.0 mph - N/A   Light Drizzle
7:47 PM 57.2 °F - 53.6 °F 88% 29.96 in 10.0 mi SW 10.4 mph - N/A   Light Drizzle
8:07 PM 57.2 °F - 53.6 °F 88% 29.96 in 10.0 mi SW 9.2 mph - N/A Rain Light Rain
8:27 PM 57.2 °F - 53.6 °F 88% 29.97 in 10.0 mi SW 11.5 mph - N/A   Light Drizzle
8:47 PM 53.6 °F - 51.8 °F 94% 29.96 in 10.0 mi SSW 6.9 mph - N/A Rain Light Rain
9:07 PM 53.6 °F - 51.8 °F 94% 29.96 in 10.0 mi SSW 9.2 mph - N/A   Overcast
9:27 PM 53.6 °F - 51.8 °F 94% 29.96 in 10.0 mi WSW 8.1 mph - N/A   Light Drizzle
9:48 PM 53.6 °F - 51.8 °F 94% 29.96 in 10.0 mi WSW 8.1 mph - N/A   Overcast
10:07 PM 53.6 °F - 51.8 °F 94% 29.97 in 10.0 mi WSW 6.9 mph - N/A   Overcast
10:27 PM 53.6 °F - 51.8 °F 94% 29.96 in 10.0 mi SW 5.8 mph - N/A   Overcast
10:47 PM 53.6 °F - 51.8 °F 94% 29.95 in 10.0 mi SSW 4.6 mph - N/A   Overcast
11:07 PM 53.6 °F - 51.8 °F 94% 29.96 in 10.0 mi WNW 4.6 mph - N/A   Mostly Cloudy
11:27 PM 53.6 °F - 51.8 °F 94% 29.97 in 10.0 mi WSW 3.5 mph - N/A   Light Drizzle
11:47 PM 53.6 °F - 51.8 °F 94% 29.96 in 10.0 mi West 3.5 mph - N/A   Mostly Cloudy